Waarnemingen

Advertentie
Mijn weer
Ueckermünde, Duitsland (10193): temperatuur & dauwpunt: 19.06.2018 06:00:00 - 25.06.2018 06:00:00 (CEST)Ueckermünde, Duitsland (10193): temperatuur 5cm & temperatuur -5cm: 19.06.2018 06:00:00 - 25.06.2018 06:00:00 (CEST)Ueckermünde, Duitsland (10193): temperatuur -20cm & temperatuur -100cm: 19.06.2018 06:00:00 - 25.06.2018 06:00:00 (CEST)Ueckermünde, Duitsland (10193): windsnelheid & windstoten: 19.06.2018 06:00:00 - 25.06.2018 06:00:00 (CEST)Ueckermünde, Duitsland (10193): windrichting: 19.06.2018 06:00:00 - 25.06.2018 06:00:00 (CEST)Ueckermünde, Duitsland (10193): luchtdruk: 19.06.2018 06:00:00 - 25.06.2018 06:00:00 (CEST)Ueckermünde, Duitsland (10193): zicht: 19.06.2018 06:00:00 - 25.06.2018 06:00:00 (CEST)Ueckermünde, Duitsland (10193): Zonneschijnduur: 19.06.2018 06:00:00 - 25.06.2018 06:00:00 (CEST)Ueckermünde, Duitsland (10193): neerslag: 19.06.2018 06:00:00 - 25.06.2018 06:00:00 (CEST)
Datum & Tijd tt [°C] td [°C] tt 5cm [°C] tt -5cm [°C] tt -20cm [°C] tt -100cm [°C] ff [km/u] ff [kn] fx [km/u] fx [kn] dd ppp [hPa] vv [km] sd [min] rr [mm]
25.06.2018 06:00:00 11,9 11,7 12,0 14,8 18,2 17,1 6 3 12 6 ZW 1018,0 7 0 0,0
25.06.2018 05:00:00 10,0 9,9 8,4 14,0 18,5 17,1 6 3 14 8 ZW 1017,9 8 0 0,0
25.06.2018 04:00:00 10,1 10,0 8,5 14,3 18,9 17,1 8 5 14 7 ZW 1017,7 8 0 0,0
25.06.2018 03:00:00 10,1 10,1 7,2 14,7 19,2 17,1 6 4 13 7 ZW 1018,1 9 0 0,0
25.06.2018 02:00:00 10,5 10,5 8,2 15,4 19,5 17,1 6 3 9 5 ZW 1017,9 9 0 0,0
25.06.2018 01:00:00 10,9 10,1 7,9 16,4 19,8 17,1 5 3 11 6 ZW 1017,9 12 0 0,0
25.06.2018 00:00:00 12,8 10,5 9,9 17,9 20,1 17,1 5 3 14 7 WZW 1018,0 11 0 0,0
24.06.2018 23:00:00 14,7 10,9 14,2 18,8 20,3 17,1 7 4 19 10 W 1017,6 12 0 0,0
24.06.2018 22:00:00 14,8 11,3 13,2 19,5 20,5 17,1 6 3 14 8 W 1017,2 12 0 0,0
24.06.2018 21:00:00 16,6 11,2 16,0 21,3 20,6 17,1 6 3 15 8 WNW 1016,8 13 18 0,0
24.06.2018 20:00:00 16,8 11,6 16,7 22,6 20,5 17,1 4 2 16 8 NW 1016,6 12 16 0,0
24.06.2018 19:00:00 17,7 10,7 18,7 24,6 20,4 17,1 7 4 19 11 NW 1016,6 13 56 0,0
24.06.2018 18:00:00 17,8 11,5 19,7 23,3 20,3 17,1 8 5 22 12 NW 1016,6 14 12 0,0
24.06.2018 17:00:00 18,0 10,4 20,5 24,9 20,0 17,1 9 5 16 9 NW 1016,8 14 3 0,0
24.06.2018 16:00:00 18,1 10,9 20,6 25,0 19,6 17,1 6 4 18 10 NNW 1016,7 13 2 0,0
24.06.2018 15:00:00 17,8 10,9 22,3 25,3 19,2 17,1 11 6 22 12 WNW 1016,8 14 0 0,0
24.06.2018 14:00:00 17,2 11,0 21,0 24,3 18,8 17,1 10 5 21 12 NW 1017,1 15 0 0,0
24.06.2018 13:00:00 16,9 11,0 21,8 23,1 18,5 17,2 8 5 18 10 NW 1016,9 19 0 0,0
24.06.2018 12:00:00 15,8 10,7 18,6 21,0 18,2 17,2 11 6 21 11 NW 1017,1 11 0 0,0
24.06.2018 11:00:00 16,0 10,8 19,1 20,2 18,0 17,2 9 5 21 12 NW 1016,8 13 0 0,0
24.06.2018 10:00:00 15,5 11,2 18,0 18,7 18,0 17,2 11 6 22 12 WNW 1016,7 12 0 0,0
24.06.2018 09:00:00 14,4 11,2 15,9 16,9 18,0 17,2 9 5 21 11 WNW 1016,6 13 0 0,0
24.06.2018 08:00:00 13,5 11,2 14,0 16,1 18,1 17,2 10 6 17 9 W 1016,4 13 0 0,0
24.06.2018 07:00:00 12,7 11,1 12,9 15,4 18,2 17,2 10 5 19 10 W 1016,2 12 0 0,0
24.06.2018 06:00:00 11,6 10,8 11,1 14,6 18,4 17,2 10 6 18 10 W 1016,1 10 0 0,0
24.06.2018 05:00:00 11,3 10,6 9,9 14,4 18,7 17,2 10 5 20 11 W 1016,2 12 0 0,0
24.06.2018 04:00:00 10,9 10,4 9,6 14,7 19,0 17,2 8 5 15 8 WZW 1016,5 12 0 0,0
24.06.2018 03:00:00 11,1 10,4 9,7 15,0 19,3 17,2 8 5 14 8 WZW 1016,6 12 0 0,0
24.06.2018 02:00:00 11,7 10,3 10,2 15,6 19,7 17,2 10 5 16 9 W 1016,9 13 0 0,0
24.06.2018 01:00:00 11,6 9,9 10,4 16,2 20,0 17,2 10 5 16 9 WZW 1017,1 14 0 0,0
24.06.2018 00:00:00 12,0 9,7 10,7 16,9 20,4 17,2 10 6 16 9 WZW 1017,2 14 0 0,0
23.06.2018 23:00:00 12,6 9,6 10,8 18,1 20,6 17,2 9 5 19 10 WZW 1017,1 17 0 0,0
23.06.2018 22:00:00 14,5 9,7 14,2 19,5 20,9 17,2 10 5 26 14 W 1017,0 17 11 0,0
23.06.2018 21:00:00 15,2 9,4 15,1 20,9 21,1 17,2 13 7 39 21 W 1016,7 16 30 0,0
23.06.2018 20:00:00 16,2 9,0 16,4 21,9 21,1 17,2 16 9 29 16 W 1016,6 16 5 0,0
23.06.2018 19:00:00 17,1 7,7 17,8 23,7 21,1 17,3 14 7 32 17 WNW 1016,4 15 20 0,0
23.06.2018 18:00:00 17,9 8,8 19,7 25,1 20,9 17,3 16 9 34 19 NW 1016,4 13 30 0,0
23.06.2018 17:00:00 18,2 8,0 20,7 25,3 20,7 17,3 17 9 37 20 WNW 1016,6 14 19 0,0
23.06.2018 16:00:00 18,8 9,5 23,2 25,8 20,4 17,3 13 7 35 19 WNW 1016,5 15 28 0,0
23.06.2018 15:00:00 18,5 8,7 23,5 25,8 20,1 17,3 18 10 33 18 WNW 1016,7 19 27 0,0
23.06.2018 14:00:00 17,2 8,5 21,0 25,2 19,7 17,3 15 8 36 19 WNW 1016,9 17 5 0,0
23.06.2018 13:00:00 16,9 8,9 21,7 25,4 19,2 17,3 15 8 34 19 NW 1017,0 19 10 0,0
23.06.2018 12:00:00 17,1 9,0 22,5 24,9 18,7 17,3 13 7 32 17 NW 1016,5 17 43 0,0
23.06.2018 11:00:00 16,1 8,1 21,5 23,6 18,3 17,3 18 10 32 17 WNW 1016,3 3,2 52 0,0
23.06.2018 10:00:00 15,9 8,5 21,0 20,8 18,1 17,3 15 8 33 18 WNW 1016,4 2,6 44 0,0
23.06.2018 09:00:00 13,7 8,4 15,4 18,2 18,1 17,3 18 10 37 20 W 1016,3 2,8 5 0,0
23.06.2018 08:00:00 12,8 8,4 14,4 17,1 18,2 17,4 17 9 29 16 W 1016,1 8 22 0,0
23.06.2018 07:00:00 11,8 8,2 12,5 15,7 18,3 17,4 19 11 30 16 W 1016,2 10 13 0,0
23.06.2018 06:00:00 11,6 8,0 11,7 15,4 18,5 17,4 17 9 29 16 W 1015,8 9 0 0,0
23.06.2018 05:00:00 11,7 8,3 11,6 15,5 18,7 17,4 16 9 38 20 W 1015,8 12 0 0,0
23.06.2018 04:00:00 12,0 8,6 11,9 15,8 18,9 17,4 19 10 34 18 W 1015,8 10 0 0,0
23.06.2018 03:00:00 12,6 8,8 12,4 16,1 19,1 17,4 22 12 37 20 W 1015,7 11 0 0,0
23.06.2018 02:00:00 12,8 9,1 12,5 16,4 19,4 17,4 19 10 36 20 W 1015,9 11 0 0,0
23.06.2018 01:00:00 13,4 9,1 13,2 16,7 19,6 17,4 19 10 37 20 W 1016,2 11 0 0,0
23.06.2018 00:00:00 13,3 8,9 12,6 16,9 20,0 17,4 16 9 32 18 W 1016,3 11 0 0,0
22.06.2018 23:00:00 13,8 8,2 13,2 17,4 20,3 17,5 18 10 32 17 W 1016,1 12 0 0,0
22.06.2018 22:00:00 13,6 8,0 12,3 18,3 20,6 17,5 13 7 24 13 W 1016,1 12 0 0,0
22.06.2018 21:00:00 14,7 9,4 14,5 19,7 20,8 17,5 12 6 28 15 W 1016,2 14 0 0,0
22.06.2018 20:00:00 14,4 9,5 14,1 21,7 20,8 17,5 13 7 50 27 W 1016,0 15 3 0,0
22.06.2018 19:00:00 18,7 6,1 20,2 25,0 20,6 17,5 16 9 33 18 WNW 1015,5 6 60 0,0
22.06.2018 18:00:00 18,9 7,2 21,2 26,0 20,3 17,5 16 9 39 21 WNW 1015,4 5 53 0,0
22.06.2018 17:00:00 19,4 6,0 22,7 26,3 19,8 17,6 19 11 38 21 W 1015,2 4,0 47 0,0
22.06.2018 16:00:00 18,7 7,5 23,1 26,9 19,3 17,6 19 10 37 20 WNW 1015,0 3,3 45 0,0
22.06.2018 15:00:00 17,7 8,9 23,9 25,2 18,8 17,6 13 7 29 16 WZW 1015,1 6 39 0,0
22.06.2018 14:00:00 16,5 10,2 20,4 22,4 18,6 17,6 18 10 32 17 WZW 1015,0 4,5 24 0,1
22.06.2018 13:00:00 12,9 9,2 12,6 21,5 18,2 17,6 17 9 39 21 W 1015,1 6 14 0,1
22.06.2018 12:00:00 16,2 8,2 22,1 23,4 17,7 17,6 20 11 33 18 W 1014,4 3,1 44 0,0
22.06.2018 11:00:00 13,7 8,0 15,6 21,1 17,3 17,6 21 11 37 20 W 1014,2 8 28 0,0
22.06.2018 10:00:00 13,8 8,3 17,4 18,9 17,0 17,6 25 13 39 21 WZW 1013,6 4,5 31 0,0
22.06.2018 09:00:00 13,4 8,3 17,1 16,5 16,9 17,6 22 12 43 23 WZW 1013,0 5 39 0,0
22.06.2018 08:00:00 11,9 7,8 14,2 14,7 16,9 17,6 24 13 42 23 WZW 1012,8 2,2 52 0,0
22.06.2018 07:00:00 10,6 7,6 12,2 12,9 17,1 17,6 25 14 40 22 WZW 1012,4 3,7 59 0,0
22.06.2018 06:00:00 9,3 7,3 9,3 11,7 17,4 17,6 20 11 34 18 WZW 1012,7 9 8 0,0
22.06.2018 05:00:00 9,1 7,0 8,1 11,5 17,6 17,6 19 10 30 16 WZW 1012,7 15 0 0,0
22.06.2018 04:00:00 9,0 6,5 7,9 11,7 17,9 17,6 18 10 35 19 WZW 1012,7 15 0 0,0
22.06.2018 03:00:00 9,4 6,7 8,3 12,1 18,2 17,7 20 11 31 17 WZW 1012,7 15 0 0,0
22.06.2018 02:00:00 9,8 7,0 8,7 12,6 18,6 17,7 18 10 29 16 WZW 1012,7 15 0 0,0
22.06.2018 01:00:00 10,0 7,4 8,9 12,8 18,9 17,7 18 10 33 18 WZW 1013,0 16 0 0,0
22.06.2018 00:00:00 9,8 7,4 8,5 13,2 19,3 17,7 18 10 30 16 WZW 1012,9 16 0 0,0
21.06.2018 23:00:00 9,8 7,3 8,6 13,7 19,7 17,7 18 10 29 16 WZW 1012,7 20 0 0,0
21.06.2018 22:00:00 10,3 6,7 9,2 14,8 20,0 17,7 16 9 34 18 WZW 1012,7 18 7 0,0
21.06.2018 21:00:00 10,9 6,9 10,3 16,4 20,3 17,7 18 10 44 24 W 1012,1 16 49 0,0
21.06.2018 20:00:00 12,0 8,4 12,2 17,6 20,5 17,7 18 10 49 27 W 1011,6 6 19 0,0
21.06.2018 19:00:00 13,0 8,8 14,1 18,7 20,7 17,7 27 15 54 29 W 1010,8 5 31 0,0
21.06.2018 18:00:00 13,7 9,4 14,8 19,5 20,8 17,7 23 13 46 25 WZW 1009,9 9 28 0,0
21.06.2018 17:00:00 13,2 10,5 13,1 19,3 21,0 17,7 19 10 53 29 WZW 1009,3 6 2 0,1
21.06.2018 16:00:00 13,7 12,4 13,9 19,5 21,3 17,7 17 9 28 15 WZW 1009,2 9 0 0,0
21.06.2018 15:00:00 12,1 11,5 12,5 19,1 21,5 17,7 16 8 29 16 WZW 1009,3 8 0 1,7
21.06.2018 14:00:00 12,8 11,0 12,8 20,9 21,6 17,7 13 7 38 21 W 1008,7 7 0 0,0
21.06.2018 13:00:00 13,9 11,5 15,0 22,4 21,6 17,6 16 9 39 21 WNW 1008,7 12 0 0,0
21.06.2018 12:00:00 16,2 12,5 17,4 23,8 21,4 17,6 22 12 49 26 NW 1007,7 4,8 1 0,0
21.06.2018 11:00:00 23,5 13,8 26,2 26,3 21,0 17,6 29 15 47 26 WZW 1006,6 3,8 40 0,0
21.06.2018 10:00:00 22,4 15,9 26,5 24,8 20,7 17,6 12 7 21 12 ZW 1007,3 20 53 0,0
21.06.2018 09:00:00 21,7 15,7 24,7 23,3 20,5 17,6 13 7 20 11 ZW 1008,7 3,0 59 0,0
21.06.2018 08:00:00 20,1 15,3 23,5 20,9 20,5 17,6 9 5 13 7 ZW 1009,8 6 60 0,0
21.06.2018 07:00:00 17,7 14,3 19,8 18,9 20,7 17,6 6 3 12 6 ZW 1010,4 8 60 0,0
21.06.2018 06:00:00 15,3 13,4 15,5 17,5 21,0 17,6 7 4 10 5 Z 1011,0 8 22 0,0
21.06.2018 05:00:00 14,1 12,8 11,5 17,6 21,3 17,6 6 3 11 6 ZW 1011,6 6 0 0,0
21.06.2018 04:00:00 14,4 12,7 10,4 18,3 21,6 17,6 6 3 13 7 ZZW 1012,3 9 0 0,0
21.06.2018 03:00:00 16,8 14,0 15,0 18,8 21,9 17,6 10 6 22 12 WZW 1013,1 9 0 0,0
21.06.2018 02:00:00 16,7 14,0 15,0 19,3 22,2 17,6 8 5 11 6 ZZW 1013,4 9 0 0,0
21.06.2018 01:00:00 17,2 14,4 13,1 19,9 22,5 17,6 7 4 13 7 ZZW 1014,0 10 0 0,0
21.06.2018 00:00:00 18,3 14,8 15,5 20,7 22,9 17,6 9 5 13 7 Z 1014,5 11 0 0,0
20.06.2018 23:00:00 19,2 14,5 15,1 21,9 23,1 17,6 8 5 10 6 ZZW 1015,0 12 0 0,0
20.06.2018 22:00:00 19,9 14,4 15,7 23,4 23,3 17,6 5 3 13 7 ZZW 1015,4 12 0 0,0
20.06.2018 21:00:00 23,5 14,8 22,2 25,3 23,4 17,6 9 5 16 9 ZZW 1015,5 16 51 0,0
20.06.2018 20:00:00 24,7 14,6 24,8 26,9 23,3 17,6 16 8 29 16 ZW 1015,9 8 50 0,0
20.06.2018 19:00:00 25,0 15,3 25,8 27,5 23,1 17,6 10 6 29 15 ZW 1016,6 12 20 0,0
20.06.2018 18:00:00 25,6 14,7 28,2 28,9 22,9 17,6 17 9 36 19 ZW 1017,3 7 50 0,0
20.06.2018 17:00:00 25,2 14,6 27,5 27,7 22,7 17,6 19 11 32 17 ZW 1018,0 4,2 13 0,0
20.06.2018 16:00:00 23,7 14,6 24,9 27,3 22,5 17,6 19 11 34 18 ZW 1018,8 6 5 0,0
20.06.2018 15:00:00 24,2 14,8 27,7 26,6 22,3 17,6 17 9 29 16 ZW 1019,2 8 1 0,0
20.06.2018 14:00:00 23,7 14,0 25,9 26,4 22,0 17,6 14 8 29 15 ZW 1019,9 8 0 0,0
20.06.2018 13:00:00 22,6 13,8 24,9 27,7 21,5 17,6 10 5 24 13 ZW 1020,6 11 12 0,0
20.06.2018 12:00:00 23,7 13,2 31,2 28,5 20,9 17,6 10 5 27 14 ZW 1021,3 12 60 0,0
20.06.2018 11:00:00 21,6 9,8 27,4 26,4 20,4 17,6 15 8 23 12 ZZW 1021,9 2,7 53 0,0
20.06.2018 10:00:00 20,1 9,8 25,6 23,8 20,0 17,6 11 6 19 10 ZW 1022,5 4,4 60 0,0
20.06.2018 09:00:00 18,0 8,5 23,0 21,2 19,8 17,6 9 5 19 10 WZW 1022,6 6 60 0,0
20.06.2018 08:00:00 16,0 10,9 19,6 19,0 19,9 17,6 11 6 19 10 WZW 1022,8 5 60 0,0
20.06.2018 07:00:00 14,5 11,1 17,1 17,1 20,1 17,6 6 4 11 6 WZW 1022,8 19 60 0,0
20.06.2018 06:00:00 12,1 11,0 12,4 15,9 20,5 17,6 6 3 9 5 ZZW 1022,6 13 31 0,0
20.06.2018 05:00:00 10,7 10,4 6,0 16,3 20,9 17,6 7 4 9 5 ZW 1022,5 12 0 0,0
20.06.2018 04:00:00 10,8 10,2 5,1 17,1 21,3 17,6 6 3 10 5 ZZW 1022,2 14 0 0,0
20.06.2018 03:00:00 12,6 11,1 10,5 17,8 21,7 17,6 9 5 12 6 WZW 1022,3 15 0 0,0
20.06.2018 02:00:00 12,6 11,1 7,2 18,8 22,1 17,6 6 3 11 6 W 1022,4 16 0 0,0
20.06.2018 01:00:00 14,6 11,7 12,1 20,0 22,5 17,6 6 4 12 7 W 1022,3 17 0 0,0
20.06.2018 00:00:00 16,0 12,6 14,0 21,2 22,8 17,6 7 4 15 8 W 1022,0 16 0 0,0
19.06.2018 23:00:00 18,0 13,7 16,5 22,4 23,0 17,6 7 4 23 12 WNW 1021,7 19 0 0,0
19.06.2018 22:00:00 19,4 13,9 18,7 23,5 23,2 17,6 11 6 30 16 WNW 1021,0 19 0 0,0
19.06.2018 21:00:00 21,4 14,1 20,9 24,8 23,2 17,6 8 5 23 13 W 1020,2 22 28 0,0
19.06.2018 20:00:00 22,2 14,3 22,7 25,7 23,2 17,6 10 5 29 16 W 1020,1 25 35 0,0
19.06.2018 19:00:00 23,1 14,5 24,2 26,4 23,1 17,6 18 10 32 17 WZW 1020,0 16 26 0,0
19.06.2018 18:00:00 22,9 15,3 24,7 26,8 22,9 17,6 16 9 35 19 WZW 1019,8 10 26 0,0
19.06.2018 17:00:00 23,3 14,5 25,8 26,4 22,7 17,6 21 11 35 19 WZW 1019,9 15 17 0,0
19.06.2018 16:00:00 21,7 13,9 22,7 26,8 22,5 17,6 22 12 34 18 WZW 1020,0 9 7 0,0
19.06.2018 15:00:00 22,7 14,2 25,6 25,6 22,4 17,6 16 9 26 14 W 1019,7 8 0 0,0
19.06.2018 14:00:00 21,6 13,9 23,1 25,6 22,2 17,6 14 7 32 18 W 1019,4 13 1 0,0
19.06.2018 13:00:00 21,6 13,2 23,5 25,8 21,9 17,6 16 8 35 19 W 1019,2 8 7 0,0
19.06.2018 12:00:00 21,0 13,4 23,2 26,1 21,5 17,6 18 10 34 19 WZW 1019,2 11 14 0,0
19.06.2018 11:00:00 20,7 12,5 24,0 24,9 21,2 17,6 20 11 32 18 ZW 1019,0 3,2 3 0,0
19.06.2018 10:00:00 19,8 12,5 22,2 24,3 21,0 17,6 21 11 31 17 WZW 1018,8 2,9 36 0,0
19.06.2018 09:00:00 19,5 12,6 23,1 22,2 20,9 17,5 17 9 29 16 WZW 1018,5 3,6 59 0,0
19.06.2018 08:00:00 18,5 13,8 21,2 20,1 20,9 17,5 16 8 31 17 W 1018,7 3,0 21 0,0
19.06.2018 07:00:00 17,3 14,3 17,9 19,4 21,1 17,5 13 7 24 13 WZW 1018,2 13 26 0,0
19.06.2018 06:00:00 16,7 13,8 16,6 18,9 21,4 17,5 13 7 22 12 WZW 1017,8 15 18 0,0

tt = temperatuur
td = dauwpunt
tt 5cm = temperatuur 5cm
tt -5cm = temperatuur -5cm
tt -20cm = temperatuur -20cm
tt -100cm = temperatuur -100cm
ff = windsnelheid
fx = windstoten
dd = windrichting
ppp = luchtdruk
vv = zicht
sd = Zonneschijnduur
rr = neerslag

Weerstations in de omgeving